Wetterdaten: Sonntag, 26.04.2015
Datum Zeit Temp. A. Mod.Schuppen Waschkche Feuchte A. Luftdruck Regen Wind Richtung Richtung Sonnenschein Helligkeit Solar
26.04.2015 00:04 11,8 C 8,6 C 15,5 C 82 % 1006,9 hPa 0,0 l/m 8,3 km/h (2 Bft) S-SO 160 0 min 0 lux 0 W/m
26.04.2015 00:08 11,8 C 8,7 C 15,5 C 83 % 1006,9 hPa 0,0 l/m 8,6 km/h (2 Bft) S-SO 160 0 min 0 lux 0 W/m
26.04.2015 00:14 11,8 C 8,7 C 15,4 C 83 % 1006,9 hPa 0,0 l/m 8,4 km/h (2 Bft) S-SO 160 0 min 0 lux 0 W/m
26.04.2015 00:19 11,8 C 8,7 C 15,4 C 83 % 1007,9 hPa 0,0 l/m 9,9 km/h (2 Bft) S-SO 160 0 min 0 lux 0 W/m
26.04.2015 00:24 11,7 C 8,8 C 15,4 C 83 % 1006,9 hPa 0,0 l/m 9,2 km/h (2 Bft) S-SO 160 0 min 0 lux 0 W/m
26.04.2015 00:29 11,7 C 8,8 C 15,4 C 83 % 1006,9 hPa 0,0 l/m 8,5 km/h (2 Bft) S-SO 160 0 min 0 lux 0 W/m
26.04.2015 00:34 11,8 C 8,9 C 15,4 C 83 % 1006,9 hPa 0,0 l/m 10,8 km/h (2 Bft) S22.5 185 0 min 0 lux 0 W/m
26.04.2015 00:39 11,8 C 9,2 C 15,4 C 83 % 1006,9 hPa 0,0 l/m 11,2 km/h (2 Bft) S 185 0 min 0 lux 0 W/m
26.04.2015 00:43 11,8 C 9,5 C 15,4 C 83 % 1006,9 hPa 0,0 l/m 9,0 km/h (2 Bft) S22.5 170 0 min 0 lux 0 W/m
26.04.2015 00:49 11,8 C 9,7 C 15,3 C 83 % 1007,9 hPa 0,0 l/m 10,4 km/h (2 Bft) S22.5 170 0 min 0 lux 0 W/m
26.04.2015 00:54 11,8 C 9,9 C 15,3 C 83 % 1006,9 hPa 0,0 l/m 8,9 km/h (2 Bft) S-SO 165 0 min 0 lux 0 W/m
26.04.2015 00:59 11,8 C 10,1 C 15,3 C 82 % 1006,9 hPa 0,0 l/m 10,7 km/h (2 Bft) S22.5 170 0 min 0 lux 0 W/m
26.04.2015 01:04 11,8 C 10,1 C 15,3 C 82 % 1006,9 hPa 0,0 l/m 8,0 km/h (2 Bft) S-SO 150 0 min 0 lux 0 W/m
26.04.2015 01:08 11,9 C 10,2 C 15,3 C 82 % 1006,9 hPa 0,0 l/m 9,4 km/h (2 Bft) S-SO 160 0 min 0 lux 0 W/m
26.04.2015 01:13 11,9 C 10,2 C 15,3 C 82 % 1006,9 hPa 0,0 l/m 8,7 km/h (2 Bft) S-SO22.5 160 0 min 0 lux 0 W/m
26.04.2015 01:19 11,9 C 10,2 C 15,3 C 82 % 1006,9 hPa 0,0 l/m 9,8 km/h (2 Bft) S-SO 155 0 min 0 lux 0 W/m
26.04.2015 01:24 11,9 C 10,2 C 15,3 C 82 % 1006,9 hPa 0,0 l/m 11,4 km/h (2 Bft) S 170 0 min 0 lux 0 W/m
26.04.2015 01:29 11,9 C 10,3 C 15,3 C 82 % 1006,9 hPa 0,0 l/m 11,0 km/h (2 Bft) S22.5 170 0 min 0 lux 0 W/m
26.04.2015 01:34 12,0 C 10,6 C 15,3 C 82 % 1006,9 hPa 0,0 l/m 10,8 km/h (2 Bft) S-SO22.5 160 0 min 0 lux 0 W/m
26.04.2015 01:39 12,0 C 10,7 C 15,3 C 82 % 1006,9 hPa 0,0 l/m 11,6 km/h (2 Bft) S22.5 185 0 min 0 lux 0 W/m
26.04.2015 01:43 12,4 C 10,9 C 15,3 C 82 % 1006,9 hPa 0,0 l/m 32,2 km/h (5 Bft) SW45 215 0 min 0 lux 0 W/m
26.04.2015 01:48 12,4 C 11,2 C 15,2 C 82 % 1007,9 hPa 0,0 l/m 28,0 km/h (5 Bft) SW22.5 215 0 min 0 lux 0 W/m
26.04.2015 01:54 12,4 C 11,3 C 15,2 C 84 % 1006,9 hPa 0,4 l/m 28,5 km/h (5 Bft) SW22.5 215 0 min 0 lux 0 W/m
26.04.2015 01:59 12,0 C 11,2 C 15,2 C 85 % 1006,9 hPa 0,0 l/m 18,5 km/h (3 Bft) SW45 215 0 min 0 lux 0 W/m
26.04.2015 02:04 12,0 C 11,1 C 15,1 C 85 % 1006,9 hPa 0,4 l/m 21,9 km/h (4 Bft) SW45 215 0 min 0 lux 0 W/m
26.04.2015 02:08 11,9 C 11,1 C 15,1 C 86 % 1006,9 hPa 0,4 l/m 24,6 km/h (4 Bft) SW22.5 220 0 min 0 lux 0 W/m
26.04.2015 02:13 11,8 C 11,0 C 15,1 C 87 % 1006,9 hPa 0,4 l/m 21,5 km/h (4 Bft) SW45 215 0 min 0 lux 0 W/m
26.04.2015 02:19 11,8 C 11,0 C 15,1 C 87 % 1006,9 hPa 0,0 l/m 16,1 km/h (3 Bft) S-SW22.5 205 0 min 0 lux 0 W/m
26.04.2015 02:24 11,8 C 11,0 C 15,1 C 87 % 1006,9 hPa 0,0 l/m 16,8 km/h (3 Bft) SW22.5 215 0 min 0 lux 0 W/m
26.04.2015 02:29 11,9 C 11,1 C 15,1 C 87 % 1006,9 hPa 0,4 l/m 17,6 km/h (3 Bft) SW45 215 0 min 0 lux 0 W/m
26.04.2015 02:34 11,9 C 11,1 C 15,1 C 88 % 1006,9 hPa 0,0 l/m 16,1 km/h (3 Bft) SW22.5 225 0 min 0 lux 0 W/m
26.04.2015 02:39 11,8 C 11,1 C 15,1 C 88 % 1006,9 hPa 0,0 l/m 17,3 km/h (3 Bft) SW22.5 225 0 min 0 lux 0 W/m
26.04.2015 02:44 11,8 C 11,1 C 15,1 C 88 % 1006,9 hPa 0,0 l/m 15,0 km/h (3 Bft) SW22.5 215 0 min 0 lux 0 W/m
26.04.2015 02:48 11,8 C 11,0 C 15,0 C 88 % 1006,9 hPa 0,4 l/m 15,5 km/h (3 Bft) S-SW22.5 210 0 min 0 lux 0 W/m
26.04.2015 02:54 11,8 C 10,9 C 15,0 C 88 % 1006,9 hPa 0,0 l/m 11,6 km/h (2 Bft) S22.5 180 0 min 0 lux 0 W/m
26.04.2015 02:59 11,8 C 10,9 C 15,0 C 88 % 1006,9 hPa 0,0 l/m 10,3 km/h (2 Bft) S22.5 170 0 min 0 lux 0 W/m
26.04.2015 03:04 11,8 C 10,9 C 15,0 C 88 % 1006,9 hPa 0,0 l/m 11,2 km/h (2 Bft) S-SO22.5 155 0 min 0 lux 0 W/m
26.04.2015 03:09 11,7 C 10,9 C 15,0 C 88 % 1006,9 hPa 0,0 l/m 13,8 km/h (3 Bft) S-SO22.5 150 0 min 0 lux 0 W/m
26.04.2015 03:13 11,7 C 10,8 C 15,0 C 88 % 1006,9 hPa 0,0 l/m 11,1 km/h (2 Bft) S-SO45 155 0 min 0 lux 0 W/m
26.04.2015 03:19 11,7 C 10,8 C 15,0 C 88 % 1006,9 hPa 0,0 l/m 9,9 km/h (2 Bft) S-SO22.5 155 0 min 0 lux 0 W/m
26.04.2015 03:24 11,7 C 10,8 C 15,0 C 88 % 1006,9 hPa 0,0 l/m 9,6 km/h (2 Bft) S-SO22.5 160 0 min 0 lux 0 W/m
26.04.2015 03:29 11,6 C 10,7 C 15,0 C 89 % 1006,9 hPa 0,0 l/m 14,1 km/h (3 Bft) S-SO22.5 165 0 min 0 lux 0 W/m
26.04.2015 03:34 11,6 C 10,7 C 15,0 C 89 % 1006,9 hPa 0,0 l/m 11,9 km/h (2 Bft) S-SO22.5 165 0 min 0 lux 0 W/m
26.04.2015 03:39 11,6 C 10,7 C 15,0 C 89 % 1006,9 hPa 0,0 l/m 11,0 km/h (2 Bft) S22.5 175 0 min 0 lux 0 W/m
26.04.2015 03:44 11,6 C 10,7 C 15,0 C 89 % 1006,9 hPa 0,0 l/m 10,2 km/h (2 Bft) S22.5 180 0 min 0 lux 0 W/m
26.04.2015 03:48 11,6 C 10,7 C 15,0 C 89 % 1006,9 hPa 0,0 l/m 11,0 km/h (2 Bft) S22.5 185 0 min 0 lux 0 W/m
26.04.2015 03:53 11,6 C 10,6 C 15,0 C 89 % 1006,9 hPa 0,0 l/m 12,3 km/h (2 Bft) S22.5 185 0 min 0 lux 0 W/m
26.04.2015 03:59 11,6 C 10,6 C 15,0 C 89 % 1006,9 hPa 0,0 l/m 7,4 km/h (2 Bft) S22.5 175 0 min 0 lux 0 W/m
26.04.2015 04:04 11,6 C 10,7 C 15,0 C 89 % 1006,9 hPa 0,0 l/m 12,0 km/h (2 Bft) S22.5 170 0 min 0 lux 0 W/m
26.04.2015 04:09 11,6 C 10,8 C 15,0 C 89 % 1006,9 hPa 0,0 l/m 11,1 km/h (2 Bft) S22.5 170 0 min 0 lux 0 W/m
26.04.2015 04:13 11,6 C 10,8 C 15,0 C 89 % 1006,9 hPa 0,0 l/m 11,6 km/h (2 Bft) S22.5 180 0 min 0 lux 0 W/m
26.04.2015 04:18 11,7 C 10,8 C 14,9 C 89 % 1006,9 hPa 0,4 l/m 12,9 km/h (3 Bft) S22.5 185 0 min 0 lux 0 W/m
26.04.2015 04:24 11,7 C 10,9 C 14,9 C 89 % 1006,9 hPa 0,0 l/m 14,1 km/h (3 Bft) S22.5 180 0 min 0 lux 0 W/m
26.04.2015 04:29 11,7 C 10,8 C 14,9 C 89 % 1005,9 hPa 0,0 l/m 13,6 km/h (3 Bft) S22.5 180 0 min 0 lux 0 W/m
26.04.2015 04:34 11,7 C 10,8 C 14,9 C 89 % 1005,9 hPa 0,0 l/m 13,6 km/h (3 Bft) S22.5 180 0 min 0 lux 0 W/m
26.04.2015 04:39 11,7 C 10,8 C 15,0 C 89 % 1005,9 hPa 0,0 l/m 11,0 km/h (2 Bft) S22.5 185 0 min 0 lux 0 W/m
26.04.2015 04:44 11,7 C 10,8 C 14,9 C 89 % 1005,9 hPa 0,0 l/m 13,3 km/h (3 Bft) S22.5 175 0 min 0 lux 0 W/m
26.04.2015 04:48 11,7 C 10,7 C 15,0 C 89 % 1005,9 hPa 0,0 l/m 10,7 km/h (2 Bft) S22.5 180 0 min 0 lux 0 W/m
26.04.2015 04:53 11,7 C 10,6 C 14,9 C 89 % 1005,9 hPa 0,0 l/m 11,0 km/h (2 Bft) S22.5 180 0 min 0 lux 0 W/m
26.04.2015 04:59 11,7 C 10,5 C 14,9 C 89 % 1005,9 hPa 0,0 l/m 10,0 km/h (2 Bft) S22.5 175 0 min 0 lux 0 W/m
26.04.2015 05:04 11,6 C 10,5 C 14,9 C 89 % 1005,9 hPa 0,0 l/m 8,6 km/h (2 Bft) S-SO22.5 160 0 min 0 lux 0 W/m
26.04.2015 05:09 11,6 C 10,6 C 14,9 C 89 % 1005,9 hPa 0,0 l/m 11,1 km/h (2 Bft) S22.5 175 0 min 0 lux 0 W/m
26.04.2015 05:13 11,6 C 10,7 C 14,9 C 89 % 1005,9 hPa 0,0 l/m 10,5 km/h (2 Bft) S45 180 0 min 0 lux 0 W/m
26.04.2015 05:18 11,6 C 10,8 C 14,9 C 89 % 1005,9 hPa 0,0 l/m 10,6 km/h (2 Bft) S-SO22.5 160 0 min 0 lux 0 W/m
26.04.2015 05:24 11,6 C 10,9 C 14,8 C 89 % 1005,9 hPa 0,0 l/m 9,7 km/h (2 Bft) S-SO22.5 165 0 min 0 lux 0 W/m
26.04.2015 05:29 11,6 C 10,9 C 14,9 C 89 % 1005,9 hPa 0,0 l/m 9,8 km/h (2 Bft) S22.5 180 0 min 0 lux 0 W/m
26.04.2015 05:34 11,6 C 10,8 C 14,9 C 89 % 1005,9 hPa 0,0 l/m 10,2 km/h (2 Bft) S22.5 190 0 min 0 lux 0 W/m
26.04.2015 05:39 11,6 C 10,9 C 14,9 C 89 % 1005,9 hPa 0,0 l/m 9,0 km/h (2 Bft) S22.5 180 0 min 0 lux 0 W/m
26.04.2015 05:44 11,6 C 10,4 C 14,8 C 89 % 1005,9 hPa 0,0 l/m 9,2 km/h (2 Bft) S22.5 190 0 min 0 lux 0 W/m
26.04.2015 05:48 11,5 C 10,4 C 14,8 C 89 % 1005,9 hPa 0,0 l/m 10,6 km/h (2 Bft) S22.5 180 0 min 0 lux 0 W/m
26.04.2015 05:53 11,5 C 10,2 C 14,8 C 89 % 1005,9 hPa 0,0 l/m 8,9 km/h (2 Bft) S-SW 195 0 min 0 lux 0 W/m
26.04.2015 05:59 11,5 C 10,3 C 14,9 C 89 % 1005,9 hPa 0,0 l/m 9,3 km/h (2 Bft) S22.5 175 0 min 0 lux 0 W/m
26.04.2015 06:04 11,5 C 10,5 C 14,9 C 89 % 1005,9 hPa 0,0 l/m 14,4 km/h (3 Bft) S22.5 185 0 min 37 lux 0 W/m
26.04.2015 06:09 11,5 C 10,6 C 14,8 C 89 % 1005,9 hPa 0,0 l/m 8,7 km/h (2 Bft) S22.5 185 0 min 37 lux 0 W/m
26.04.2015 06:13 11,5 C 10,6 C 14,8 C 89 % 1005,9 hPa 0,0 l/m 10,8 km/h (2 Bft) S22.5 185 0 min 102 lux 0 W/m
26.04.2015 06:18 11,5 C 10,4 C 14,8 C 89 % 1005,9 hPa 0,0 l/m 8,1 km/h (2 Bft) S22.5 175 0 min 299 lux 0 W/m
26.04.2015 06:24 11,4 C 10,2 C 14,8 C 89 % 1005,9 hPa 0,0 l/m 9,4 km/h (2 Bft) S22.5 185 0 min 358 lux 2 W/m
26.04.2015 06:29 11,5 C 10,4 C 14,8 C 89 % 1005,9 hPa 0,0 l/m 10,6 km/h (2 Bft) S22.5 185 0 min 383 lux 3 W/m
26.04.2015 06:34 11,5 C 10,7 C 14,8 C 89 % 1005,9 hPa 0,0 l/m 12,3 km/h (2 Bft) S-SW45 195 0 min 383 lux 3 W/m
26.04.2015 06:39 11,6 C 10,8 C 14,8 C 89 % 1005,9 hPa 0,0 l/m 10,2 km/h (2 Bft) S-SW22.5 195 0 min 392 lux 3 W/m
26.04.2015 06:44 11,6 C 11,0 C 14,8 C 89 % 1005,9 hPa 0,0 l/m 14,9 km/h (3 Bft) S-SW22.5 210 0 min 392 lux 3 W/m
26.04.2015 06:48 11,6 C 11,0 C 14,8 C 89 % 1005,9 hPa 0,0 l/m 14,2 km/h (3 Bft) S-SW22.5 195 0 min 562 lux 4 W/m
26.04.2015 06:53 11,8 C 11,1 C 14,7 C 89 % 1005,9 hPa 0,0 l/m 12,4 km/h (2 Bft) S-SW22.5 205 0 min 562 lux 4 W/m
26.04.2015 06:59 11,8 C 11,1 C 14,8 C 89 % 1005,9 hPa 0,0 l/m 12,7 km/h (3 Bft) S-SW22.5 200 0 min 562 lux 4 W/m
26.04.2015 07:04 11,8 C 11,3 C 14,8 C 89 % 1005,9 hPa 0,0 l/m 17,8 km/h (3 Bft) S-SW45 210 0 min 766 lux 5 W/m
26.04.2015 07:09 11,8 C 11,3 C 14,8 C 89 % 1005,9 hPa 0,0 l/m 11,8 km/h (2 Bft) S-SW22.5 200 0 min 881 lux 6 W/m
26.04.2015 07:13 11,8 C 11,3 C 14,8 C 89 % 1005,9 hPa 0,0 l/m 8,9 km/h (2 Bft) S22.5 190 0 min 1,18 klux 8 W/m
26.04.2015 07:18 11,8 C 11,4 C 14,8 C 89 % 1005,9 hPa 0,0 l/m 14,3 km/h (3 Bft) S-SW22.5 205 0 min 1,75 klux 12 W/m
26.04.2015 07:24 11,9 C 11,7 C 14,7 C 89 % 1005,9 hPa 0,0 l/m 14,7 km/h (3 Bft) SW22.5 215 0 min 1,75 klux 12 W/m
26.04.2015 07:29 12,0 C 11,9 C 14,7 C 89 % 1005,9 hPa 0,0 l/m 13,3 km/h (3 Bft) S-SW22.5 205 0 min 4,02 klux 27 W/m
26.04.2015 07:34 12,1 C 12,1 C 14,7 C 89 % 1006,9 hPa 0,0 l/m 15,2 km/h (3 Bft) SW45 220 0 min 4,54 klux 31 W/m
26.04.2015 07:39 12,1 C 12,3 C 14,7 C 89 % 1006,9 hPa 0,0 l/m 18,1 km/h (3 Bft) S-SW22.5 210 0 min 5,69 klux 39 W/m
26.04.2015 07:44 12,2 C 12,3 C 14,7 C 89 % 1006,9 hPa 0,0 l/m 19,0 km/h (3 Bft) S-SW45 210 0 min 6,62 klux 45 W/m
26.04.2015 07:48 12,3 C 12,5 C 14,7 C 89 % 1006,9 hPa 0,0 l/m 17,1 km/h (3 Bft) SW22.5 220 0 min 6,62 klux 45 W/m
26.04.2015 07:53 12,4 C 12,6 C 14,7 C 88 % 1005,9 hPa 0,0 l/m 17,8 km/h (3 Bft) SW45 215 0 min 13,1 klux 90 W/m
26.04.2015 07:59 12,4 C 12,6 C 14,7 C 88 % 1006,9 hPa 0,0 l/m 18,3 km/h (3 Bft) SW45 215 0 min 13,1 klux 90 W/m
26.04.2015 08:04 12,6 C 13,6 C 14,7 C 88 % 1006,9 hPa 0,0 l/m 22,3 km/h (4 Bft) SW45 225 0 min 13,1 klux 90 W/m
26.04.2015 08:09 12,6 C 13,8 C 14,7 C 88 % 1006,9 hPa 0,0 l/m 21,3 km/h (4 Bft) SW45 220 0 min 13,1 klux 90 W/m
26.04.2015 08:13 12,6 C 14,3 C 14,7 C 88 % 1006,9 hPa 0,0 l/m 15,8 km/h (3 Bft) SW22.5 215 0 min 13,1 klux 90 W/m
26.04.2015 08:19 12,7 C 14,3 C 14,7 C 88 % 1006,9 hPa 0,0 l/m 13,3 km/h (3 Bft) S-SW45 210 0 min 6,85 klux 47 W/m
26.04.2015 08:24 12,7 C 14,1 C 14,7 C 87 % 1006,9 hPa 0,0 l/m 14,6 km/h (3 Bft) S-SW22.5 210 0 min 5,92 klux 40 W/m
26.04.2015 08:29 12,7 C 13,9 C 14,7 C 87 % 1006,9 hPa 0,0 l/m 15,2 km/h (3 Bft) SW45 215 0 min 5,92 klux 40 W/m
26.04.2015 08:34 12,8 C 13,9 C 14,7 C 88 % 1006,9 hPa 0,0 l/m 12,7 km/h (3 Bft) SW22.5 225 0 min 8,63 klux 59 W/m
26.04.2015 08:39 12,8 C 14,4 C 14,7 C 88 % 1006,9 hPa 0,0 l/m 16,1 km/h (3 Bft) SW22.5 215 0 min 8,63 klux 59 W/m
26.04.2015 08:44 12,8 C 14,8 C 14,7 C 88 % 1006,9 hPa 0,0 l/m 14,4 km/h (3 Bft) SW22.5 215 0 min 9,5 klux 65 W/m
26.04.2015 08:48 12,9 C 14,9 C 14,7 C 87 % 1006,9 hPa 0,0 l/m 14,6 km/h (3 Bft) SW45 220 0 min 9,5 klux 65 W/m
26.04.2015 08:54 12,9 C 15,4 C 14,7 C 87 % 1006,9 hPa 0,0 l/m 14,1 km/h (3 Bft) SW45 225 0 min 12,8 klux 88 W/m
26.04.2015 08:59 12,9 C 15,9 C 14,7 C 87 % 1006,9 hPa 0,0 l/m 13,3 km/h (3 Bft) SW45 220 0 min 15,0 klux 103 W/m
26.04.2015 09:04 13,0 C 16,4 C 14,7 C 86 % 1006,9 hPa 0,0 l/m 15,5 km/h (3 Bft) SW45 220 0 min 15,8 klux 108 W/m
26.04.2015 09:09 13,1 C 16,7 C 14,7 C 86 % 1006,9 hPa 0,0 l/m 15,8 km/h (3 Bft) S-SW22.5 205 0 min 15,4 klux 105 W/m
26.04.2015 09:13 13,2 C 17,2 C 14,8 C 86 % 1006,9 hPa 0,0 l/m 16,1 km/h (3 Bft) SW45 225 0 min 20,5 klux 140 W/m
26.04.2015 09:19 13,4 C 18,5 C 14,8 C 86 % 1006,9 hPa 0,0 l/m 17,3 km/h (3 Bft) SW45 220 0 min 21,0 klux 144 W/m
26.04.2015 09:24 13,7 C 18,6 C 14,8 C 86 % 1006,9 hPa 0,0 l/m 16,6 km/h (3 Bft) SW22.5 235 0 min 22,0 klux 150 W/m
26.04.2015 09:29 13,8 C 19,3 C 14,8 C 85 % 1006,9 hPa 0,0 l/m 16,9 km/h (3 Bft) SW45 220 0 min 22,0 klux 150 W/m
26.04.2015 09:34 13,8 C 18,6 C 14,8 C 85 % 1006,9 hPa 0,0 l/m 16,6 km/h (3 Bft) SW22.5 215 0 min 16,1 klux 110 W/m
26.04.2015 09:39 13,8 C 18,6 C 14,8 C 85 % 1006,9 hPa 0,0 l/m 21,7 km/h (4 Bft) SW22.5 235 0 min 22,5 klux 154 W/m
26.04.2015 09:43 13,7 C 18,6 C 14,8 C 83 % 1006,9 hPa 0,0 l/m 21,5 km/h (4 Bft) SW45 235 0 min 31,5 klux 215 W/m
26.04.2015 09:48 13,7 C 21,4 C 14,8 C 83 % 1006,9 hPa 0,0 l/m 17,6 km/h (3 Bft) W-SW22.5 245 5 min 50,5 klux 345 W/m
26.04.2015 09:54 14,3 C 21,8 C 14,9 C 82 % 1006,9 hPa 0,0 l/m 19,6 km/h (3 Bft) SW45 225 0 min 28,6 klux 196 W/m
26.04.2015 09:59 14,1 C 20,3 C 14,9 C 81 % 1006,9 hPa 0,0 l/m 22,0 km/h (4 Bft) SW45 235 0 min 13,6 klux 93 W/m
26.04.2015 10:04 14,1 C 19,2 C 14,9 C 81 % 1006,9 hPa 0,0 l/m 20,1 km/h (4 Bft) SW45 235 0 min 19,2 klux 131 W/m
26.04.2015 10:08 14,4 C 21,3 C 14,9 C 81 % 1006,9 hPa 0,0 l/m 18,1 km/h (3 Bft) SW45 235 0 min 40,0 klux 274 W/m
26.04.2015 10:13 14,6 C 21,2 C 14,9 C 78 % 1005,9 hPa 0,0 l/m 21,0 km/h (4 Bft) SW45 235 5 min 45,7 klux 313 W/m
26.04.2015 10:19 14,6 C 20,8 C 14,9 C 78 % 1006,9 hPa 0,0 l/m 23,2 km/h (4 Bft) SW45 225 6 min 50,1 klux 343 W/m
26.04.2015 10:24 14,8 C 23,2 C 15,0 C 78 % 1006,9 hPa 0,0 l/m 21,8 km/h (4 Bft) SW67.5 230 5 min 54,9 klux 376 W/m
26.04.2015 10:29 14,9 C 22,9 C 14,9 C 78 % 1006,9 hPa 0,0 l/m 20,9 km/h (4 Bft) SW45 225 0 min 36,8 klux 252 W/m
26.04.2015 10:34 14,9 C 21,7 C 15,0 C 76 % 1006,9 hPa 0,0 l/m 25,0 km/h (4 Bft) SW22.5 230 0 min 37,5 klux 257 W/m
26.04.2015 10:39 14,9 C 23,8 C 15,0 C 76 % 1006,9 hPa 0,0 l/m 24,0 km/h (4 Bft) SW22.5 220 5 min 49,2 klux 337 W/m
26.04.2015 10:43 15,4 C 24,9 C 15,0 C 76 % 1006,9 hPa 0,0 l/m 25,3 km/h (4 Bft) SW22.5 225 0 min 44,4 klux 304 W/m
26.04.2015 10:49 15,3 C 24,5 C 15,0 C 75 % 1006,9 hPa 0,0 l/m 21,4 km/h (4 Bft) W-SW22.5 240 0 min 32,7 klux 224 W/m
26.04.2015 10:54 15,2 C 22,9 C 15,0 C 74 % 1006,9 hPa 0,0 l/m 21,6 km/h (4 Bft) SW67.5 225 0 min 32,0 klux 219 W/m
26.04.2015 10:59 15,2 C 23,4 C 15,1 C 76 % 1006,9 hPa 0,0 l/m 21,6 km/h (4 Bft) SW45 225 0 min 38,0 klux 260 W/m
26.04.2015 11:04 15,4 C 23,2 C 15,1 C 76 % 1006,9 hPa 0,0 l/m 26,5 km/h (4 Bft) W-SW45 250 0 min 31,6 klux 216 W/m
26.04.2015 11:08 15,6 C 24,0 C 15,1 C 77 % 1006,9 hPa 0,0 l/m 23,3 km/h (4 Bft) W-SW22.5 240 0 min 43,5 klux 298 W/m
26.04.2015 11:14 15,7 C 25,4 C 15,1 C 74 % 1006,9 hPa 0,0 l/m 22,8 km/h (4 Bft) SW22.5 230 0 min 48,7 klux 333 W/m
26.04.2015 11:19 15,6 C 24,1 C 15,1 C 72 % 1006,9 hPa 0,0 l/m 20,8 km/h (4 Bft) SW45 220 0 min 27,9 klux 191 W/m
26.04.2015 11:24 15,4 C 22,1 C 15,1 C 73 % 1006,9 hPa 0,0 l/m 28,6 km/h (5 Bft) SW45 225 0 min 28,3 klux 194 W/m
26.04.2015 11:29 15,2 C 20,3 C 15,1 C 73 % 1006,9 hPa 0,0 l/m 24,8 km/h (4 Bft) SW45 235 0 min 27,8 klux 190 W/m
26.04.2015 11:34 15,0 C 19,3 C 15,2 C 74 % 1006,9 hPa 0,0 l/m 32,1 km/h (5 Bft) W-SW45 240 0 min 25,2 klux 172 W/m
26.04.2015 11:38 15,1 C 21,6 C 15,2 C 76 % 1006,9 hPa 0,0 l/m 23,0 km/h (4 Bft) W-SW22.5 240 4 min 83,5 klux 571 W/m
26.04.2015 11:43 15,8 C 25,1 C 15,2 C 75 % 1006,9 hPa 0,0 l/m 25,0 km/h (4 Bft) W45 260 0 min 40,4 klux 276 W/m
26.04.2015 11:49 15,9 C 28,0 C 15,2 C 72 % 1006,9 hPa 0,0 l/m 25,0 km/h (4 Bft) W45 260 6 min 59,3 klux 406 W/m
26.04.2015 11:54 16,1 C 28,0 C 15,2 C 74 % 1006,9 hPa 0,0 l/m 19,2 km/h (3 Bft) W-SW45 255 5 min 80,2 klux 549 W/m
26.04.2015 11:59 16,5 C 29,6 C 15,3 C 72 % 1006,9 hPa 0,0 l/m 25,7 km/h (4 Bft) SW45 225 5 min 62,7 klux 429 W/m
26.04.2015 12:03 16,2 C 28,1 C 15,3 C 70 % 1006,9 hPa 0,0 l/m 23,6 km/h (4 Bft) SW22.5 230 0 min 44,9 klux 307 W/m
26.04.2015 12:09 16,2 C 27,5 C 15,3 C 67 % 1005,9 hPa 0,0 l/m 24,1 km/h (4 Bft) W-SW22.5 250 0 min 44,7 klux 306 W/m
26.04.2015 12:14 16,2 C 25,9 C 15,4 C 72 % 1005,9 hPa 0,0 l/m 15,8 km/h (3 Bft) W45 260 0 min 39,8 klux 272 W/m
26.04.2015 12:19 16,1 C 24,9 C 15,4 C 70 % 1005,9 hPa 0,0 l/m 23,6 km/h (4 Bft) SW45 235 0 min 33,0 klux 226 W/m
26.04.2015 12:24 16,1 C 24,6 C 15,4 C 71 % 1005,9 hPa 0,0 l/m 22,7 km/h (4 Bft) SW45 235 0 min 37,2 klux 254 W/m
26.04.2015 12:29 16,2 C 25,2 C 15,4 C 70 % 1005,9 hPa 0,0 l/m 22,0 km/h (4 Bft) W45 260 0 min 40,6 klux 278 W/m
26.04.2015 12:33 16,4 C 26,8 C 15,5 C 72 % 1005,9 hPa 0,0 l/m 16,6 km/h (3 Bft) W22.5 265 0 min 48,8 klux 334 W/m
26.04.2015 12:38 16,4 C 24,9 C 15,5 C 69 % 1005,9 hPa 0,0 l/m 18,6 km/h (3 Bft) SW45 215 0 min 29,5 klux 202 W/m
26.04.2015 12:44 16,2 C 24,4 C 15,5 C 70 % 1005,9 hPa 0,0 l/m 25,7 km/h (4 Bft) SW45 220 0 min 29,2 klux 200 W/m
26.04.2015 12:49 16,2 C 23,9 C 15,5 C 71 % 1005,9 hPa 0,0 l/m 16,0 km/h (3 Bft) SW45 230 0 min 27,5 klux 188 W/m
26.04.2015 12:54 16,2 C 22,7 C 15,5 C 70 % 1005,9 hPa 0,0 l/m 19,3 km/h (3 Bft) W-SW45 240 0 min 25,2 klux 172 W/m
26.04.2015 12:59 16,2 C 22,7 C 15,5 C 72 % 1005,9 hPa 0,0 l/m 16,7 km/h (3 Bft) W-SW45 240 0 min 27,7 klux 189 W/m
26.04.2015 13:03 16,2 C 22,3 C 15,6 C 72 % 1005,9 hPa 0,0 l/m 19,4 km/h (3 Bft) SW22.5 225 0 min 28,2 klux 193 W/m
26.04.2015 13:09 16,2 C 22,8 C 15,6 C 72 % 1005,9 hPa 0,0 l/m 13,0 km/h (3 Bft) SW22.5 235 0 min 27,5 klux 188 W/m
26.04.2015 13:14 16,2 C 23,0 C 15,6 C 70 % 1005,9 hPa 0,0 l/m 15,1 km/h (3 Bft) SW22.5 215 0 min 25,5 klux 174 W/m
26.04.2015 13:19 16,2 C 22,1 C 15,6 C 70 % 1005,9 hPa 0,0 l/m 22,8 km/h (4 Bft) SW45 230 0 min 22,6 klux 155 W/m
26.04.2015 13:24 16,2 C 20,9 C 15,6 C 71 % 1005,9 hPa 0,0 l/m 21,5 km/h (4 Bft) SW22.5 230 0 min 22,1 klux 151 W/m
26.04.2015 13:29 16,2 C 21,1 C 15,6 C 71 % 1005,9 hPa 0,0 l/m 17,7 km/h (3 Bft) SW45 215 0 min 22,1 klux 151 W/m
26.04.2015 13:33 16,1 C 20,8 C 15,6 C 73 % 1005,9 hPa 0,0 l/m 16,7 km/h (3 Bft) SW22.5 220 0 min 19,3 klux 132 W/m
26.04.2015 13:39 15,8 C 19,7 C 15,6 C 72 % 1005,9 hPa 0,0 l/m 23,6 km/h (4 Bft) SW67.5 215 0 min 15,7 klux 107 W/m
26.04.2015 13:44 15,7 C 19,1 C 15,7 C 74 % 1005,9 hPa 0,0 l/m 20,8 km/h (4 Bft) SW45 225 0 min 19,0 klux 130 W/m
26.04.2015 13:49 15,6 C 18,9 C 15,6 C 74 % 1005,9 hPa 0,0 l/m 23,1 km/h (4 Bft) SW22.5 225 0 min 19,7 klux 135 W/m
26.04.2015 13:54 15,6 C 18,0 C 15,7 C 74 % 1005,9 hPa 0,0 l/m 25,2 km/h (4 Bft) SW45 215 0 min 22,1 klux 151 W/m
26.04.2015 13:59 15,5 C 17,3 C 15,6 C 76 % 1005,9 hPa 0,0 l/m 26,4 km/h (4 Bft) S-SW45 210 0 min 25,1 klux 172 W/m
26.04.2015 14:04 15,3 C 17,7 C 15,7 C 77 % 1005,9 hPa 0,0 l/m 20,1 km/h (4 Bft) SW45 215 0 min 26,0 klux 178 W/m
26.04.2015 14:09 15,2 C 18,3 C 15,6 C 77 % 1005,9 hPa 0,0 l/m 17,8 km/h (3 Bft) SW22.5 220 0 min 35,7 klux 244 W/m
26.04.2015 14:14 15,1 C 18,7 C 15,6 C 76 % 1005,9 hPa 0,0 l/m 19,5 km/h (3 Bft) SW45 215 0 min 33,8 klux 231 W/m
26.04.2015 14:19 15,3 C 18,8 C 15,6 C 75 % 1005,9 hPa 0,0 l/m 13,6 km/h (3 Bft) SW22.5 225 0 min 29,7 klux 203 W/m
26.04.2015 14:24 15,4 C 18,8 C 15,6 C 76 % 1005,9 hPa 0,0 l/m 14,0 km/h (3 Bft) SW22.5 235 0 min 32,6 klux 223 W/m
26.04.2015 14:28 15,7 C 21,6 C 15,6 C 75 % 1005,9 hPa 0,0 l/m 11,9 km/h (2 Bft) SW22.5 230 0 min 37,6 klux 257 W/m
26.04.2015 14:33 16,0 C 21,9 C 15,6 C 76 % 1005,9 hPa 0,0 l/m 16,0 km/h (3 Bft) SW22.5 230 5 min 69,3 klux 474 W/m
26.04.2015 14:39 16,6 C 24,0 C 15,6 C 75 % 1005,9 hPa 0,0 l/m 16,1 km/h (3 Bft) SW22.5 225 6 min 77,5 klux 530 W/m
26.04.2015 14:44 16,6 C 29,8 C 15,7 C 75 % 1004,8 hPa 0,0 l/m 17,1 km/h (3 Bft) SW22.5 215 5 min 93,0 klux 636 W/m
26.04.2015 14:49 17,2 C 32,6 C 15,7 C 69 % 1004,8 hPa 0,0 l/m 16,8 km/h (3 Bft) S-SW22.5 210 5 min 91,2 klux 624 W/m
26.04.2015 14:54 17,3 C 32,8 C 15,8 C 67 % 1004,8 hPa 0,0 l/m 16,0 km/h (3 Bft) SW45 225 0 min 45,9 klux 314 W/m
26.04.2015 14:59 17,3 C 30,3 C 15,8 C 67 % 1004,8 hPa 0,0 l/m 17,5 km/h (3 Bft) S-SW67.5 205 0 min 36,6 klux 250 W/m
26.04.2015 15:04 17,0 C 26,7 C 15,8 C 67 % 1004,8 hPa 0,0 l/m 16,1 km/h (3 Bft) SW45 215 0 min 27,2 klux 186 W/m
26.04.2015 15:09 17,0 C 25,8 C 15,9 C 70 % 1004,8 hPa 0,0 l/m 15,1 km/h (3 Bft) W-SW22.5 240 0 min 34,9 klux 239 W/m
26.04.2015 15:14 17,0 C 25,8 C 15,9 C 70 % 1004,8 hPa 0,0 l/m 12,9 km/h (3 Bft) SW22.5 220 5 min 57,2 klux 391 W/m
26.04.2015 15:19 17,3 C 28,1 C 15,9 C 67 % 1005,8 hPa 0,0 l/m 19,7 km/h (3 Bft) SW45 230 5 min 65,7 klux 449 W/m
26.04.2015 15:24 17,3 C 27,8 C 16,0 C 66 % 1004,8 hPa 0,0 l/m 19,8 km/h (3 Bft) SW45 230 0 min 34,7 klux 237 W/m
26.04.2015 15:28 17,4 C 28,1 C 16,0 C 65 % 1004,8 hPa 0,0 l/m 21,0 km/h (4 Bft) W-SW22.5 240 0 min 46,4 klux 317 W/m
26.04.2015 15:34 17,7 C 30,0 C 16,1 C 66 % 1004,8 hPa 0,0 l/m 16,7 km/h (3 Bft) SW45 230 6 min 78,1 klux 534 W/m
26.04.2015 15:39 18,0 C 29,7 C 16,2 C 63 % 1004,8 hPa 0,0 l/m 15,3 km/h (3 Bft) SW22.5 225 0 min 47,7 klux 326 W/m
26.04.2015 15:44 18,2 C 30,0 C 16,3 C 66 % 1004,8 hPa 0,0 l/m 17,7 km/h (3 Bft) W-SW22.5 245 5 min 82,6 klux 565 W/m
26.04.2015 15:49 18,2 C 34,7 C 16,4 C 63 % 1004,8 hPa 0,0 l/m 19,9 km/h (4 Bft) W-SW22.5 245 0 min 51,9 klux 355 W/m
26.04.2015 15:54 18,0 C 33,8 C 16,4 C 61 % 1004,8 hPa 0,0 l/m 17,8 km/h (3 Bft) W-SW45 250 0 min 47,4 klux 324 W/m
26.04.2015 15:58 17,6 C 30,1 C 16,5 C 63 % 1004,8 hPa 0,0 l/m 16,1 km/h (3 Bft) SW45 220 0 min 32,1 klux 220 W/m
26.04.2015 16:04 17,6 C 28,3 C 16,5 C 64 % 1004,8 hPa 0,0 l/m 17,2 km/h (3 Bft) W-NW22.5 285 0 min 28,1 klux 192 W/m
26.04.2015 16:09 17,4 C 25,8 C 16,5 C 65 % 1004,8 hPa 0,0 l/m 19,1 km/h (3 Bft) W67.5 270 0 min 23,4 klux 160 W/m
26.04.2015 16:14 17,3 C 24,5 C 16,5 C 65 % 1004,8 hPa 0,0 l/m 19,5 km/h (3 Bft) NW45 305 0 min 23,4 klux 160 W/m
26.04.2015 16:19 16,2 C 20,9 C 16,5 C 67 % 1004,9 hPa 0,0 l/m 24,6 km/h (4 Bft) W-NW22.5 295 0 min 16,1 klux 110 W/m
26.04.2015 16:23 16,0 C 19,1 C 16,5 C 66 % 1004,9 hPa 0,0 l/m 24,1 km/h (4 Bft) W-NW22.5 300 0 min 16,2 klux 111 W/m
26.04.2015 16:28 15,7 C 18,7 C 16,4 C 67 % 1004,9 hPa 0,0 l/m 22,8 km/h (4 Bft) NW45 305 0 min 9,2 klux 63 W/m
26.04.2015 16:34 15,2 C 17,2 C 16,4 C 73 % 1004,9 hPa 0,0 l/m 24,0 km/h (4 Bft) W-NW22.5 295 0 min 7,74 klux 53 W/m
26.04.2015 16:39 14,9 C 15,4 C 16,4 C 74 % 1004,9 hPa 0,0 l/m 18,1 km/h (3 Bft) NW22.5 305 0 min 12,5 klux 86 W/m
26.04.2015 16:44 14,3 C 14,9 C 16,4 C 78 % 1004,9 hPa 0,0 l/m 19,4 km/h (3 Bft) W-NW22.5 295 0 min 14,6 klux 100 W/m
26.04.2015 16:49 14,0 C 14,9 C 16,3 C 79 % 1004,9 hPa 0,0 l/m 17,4 km/h (3 Bft) W-NW22.5 295 0 min 13,0 klux 89 W/m
26.04.2015 16:54 14,0 C 14,9 C 16,3 C 79 % 1004,9 hPa 0,0 l/m 8,7 km/h (2 Bft) W22.5 275 0 min 13,0 klux 89 W/m
26.04.2015 16:58 14,3 C 15,4 C 16,2 C 80 % 1004,9 hPa 0,0 l/m 10,4 km/h (2 Bft) W22.5 275 0 min 13,9 klux 95 W/m
26.04.2015 17:04 14,4 C 15,7 C 16,2 C 78 % 1004,9 hPa 0,0 l/m 8,9 km/h (2 Bft) W-SW22.5 250 0 min 14,0 klux 96 W/m
26.04.2015 17:09 14,4 C 15,9 C 16,1 C 78 % 1004,9 hPa 0,0 l/m 6,8 km/h (2 Bft) W 280 0 min 32,0 klux 219 W/m
26.04.2015 17:14 14,9 C 19,0 C 16,1 C 78 % 1004,9 hPa 0,0 l/m 12,1 km/h (2 Bft) W22.5 275 0 min 40,1 klux 274 W/m
26.04.2015 17:18 15,1 C 22,0 C 16,0 C 75 % 1004,9 hPa 0,0 l/m 11,9 km/h (2 Bft) W22.5 270 4 min 47,0 klux 321 W/m
26.04.2015 17:23 15,4 C 23,4 C 16,0 C 74 % 1004,9 hPa 0,0 l/m 12,9 km/h (3 Bft) W-NW22.5 295 5 min 46,7 klux 319 W/m
26.04.2015 17:29 15,7 C 23,3 C 16,0 C 69 % 1004,9 hPa 0,0 l/m 15,7 km/h (3 Bft) NW22.5 305 0 min 32,4 klux 222 W/m
26.04.2015 17:34 15,8 C 21,8 C 16,0 C 69 % 1004,9 hPa 0,0 l/m 12,9 km/h (3 Bft) W-NW45 285 0 min 22,9 klux 157 W/m
26.04.2015 17:39 15,9 C 21,7 C 16,0 C 71 % 1004,9 hPa 0,0 l/m 16,8 km/h (3 Bft) W-NW45 285 0 min 24,7 klux 169 W/m
26.04.2015 17:44 16,0 C 21,8 C 16,0 C 71 % 1004,9 hPa 0,0 l/m 9,8 km/h (2 Bft) W-NW22.5 295 0 min 22,2 klux 152 W/m
26.04.2015 17:49 15,9 C 21,0 C 16,0 C 69 % 1004,9 hPa 0,0 l/m 15,1 km/h (3 Bft) W-NW22.5 300 0 min 18,2 klux 124 W/m
26.04.2015 17:53 15,8 C 20,3 C 16,0 C 70 % 1004,9 hPa 0,0 l/m 12,5 km/h (2 Bft) W22.5 270 0 min 19,7 klux 135 W/m
26.04.2015 17:59 15,8 C 20,3 C 16,0 C 71 % 1003,9 hPa 0,0 l/m 14,3 km/h (3 Bft) W22.5 260 0 min 20,1 klux 137 W/m
26.04.2015 18:04 16,0 C 20,8 C 16,0 C 69 % 1003,9 hPa 0,0 l/m 13,6 km/h (3 Bft) W22.5 260 0 min 22,1 klux 151 W/m
26.04.2015 18:09 15,9 C 21,0 C 16,0 C 70 % 1003,9 hPa 0,0 l/m 11,1 km/h (2 Bft) W22.5 260 0 min 21,4 klux 146 W/m
26.04.2015 18:14 16,0 C 21,1 C 16,0 C 71 % 1003,9 hPa 0,0 l/m 10,5 km/h (2 Bft) W45 260 0 min 20,6 klux 141 W/m
26.04.2015 18:18 16,0 C 21,1 C 16,0 C 69 % 1003,9 hPa 0,0 l/m 13,8 km/h (3 Bft) W-NW22.5 295 0 min 18,8 klux 129 W/m
26.04.2015 18:24 15,9 C 20,2 C 16,0 C 68 % 1003,9 hPa 0,0 l/m 10,7 km/h (2 Bft) W22.5 270 0 min 18,0 klux 123 W/m
26.04.2015 18:29 16,0 C 20,0 C 16,0 C 67 % 1003,9 hPa 0,0 l/m 10,7 km/h (2 Bft) W22.5 270 0 min 16,8 klux 115 W/m
26.04.2015 18:34 16,0 C 20,0 C 16,0 C 67 % 1003,9 hPa 0,0 l/m 8,1 km/h (2 Bft) NW 305 0 min 15,1 klux 103 W/m
26.04.2015 18:39 16,0 C 19,7 C 16,0 C 69 % 1003,9 hPa 0,0 l/m 11,2 km/h (2 Bft) W-NW45 295 0 min 14,2 klux 97 W/m
26.04.2015 18:44 15,7 C 18,8 C 16,0 C 70 % 1003,9 hPa 0,0 l/m 11,3 km/h (2 Bft) W-NW22.5 290 0 min 12,8 klux 88 W/m
26.04.2015 18:48 15,7 C 18,5 C 16,0 C 71 % 1003,9 hPa 0,0 l/m 11,5 km/h (2 Bft) NW22.5 305 0 min 11,1 klux 76 W/m
26.04.2015 18:53 15,7 C 18,0 C 16,0 C 71 % 1003,9 hPa 0,0 l/m 5,6 km/h (2 Bft) W 270 0 min 8,48 klux 58 W/m
26.04.2015 18:59 15,5 C 17,7 C 16,0 C 73 % 1003,9 hPa 0,0 l/m 7,9 km/h (2 Bft) W-SW 255 0 min 8,39 klux 57 W/m
26.04.2015 19:04 15,5 C 17,6 C 15,9 C 71 % 1003,9 hPa 0,0 l/m 8,7 km/h (2 Bft) NW22.5 320 0 min 7,60 klux 52 W/m
26.04.2015 19:09 15,5 C 17,3 C 15,9 C 73 % 1003,9 hPa 0,0 l/m 1,8 km/h (1 Bft) N-NW 340 0 min 6,66 klux 46 W/m
26.04.2015 19:13 15,5 C 16,9 C 15,9 C 74 % 1003,9 hPa 0,0 l/m 0,4 km/h (0 Bft) N-NW 340 0 min 5,56 klux 38 W/m
26.04.2015 19:19 15,3 C 16,5 C 15,9 C 74 % 1004,9 hPa 0,0 l/m 0,6 km/h (0 Bft) N-NW 340 0 min 4,06 klux 28 W/m
26.04.2015 19:24 15,2 C 16,1 C 15,9 C 74 % 1003,9 hPa 0,0 l/m 8,2 km/h (2 Bft) N22.5 360 0 min 3,35 klux 23 W/m
26.04.2015 19:29 15,1 C 15,6 C 15,9 C 73 % 1003,9 hPa 0,0 l/m 7,3 km/h (2 Bft) N22.5 360 0 min 4,06 klux 28 W/m
26.04.2015 19:34 15,0 C 15,3 C 15,9 C 73 % 1003,9 hPa 0,0 l/m 1,3 km/h (1 Bft) N22.5 360 0 min 4,63 klux 32 W/m
26.04.2015 19:39 15,0 C 15,2 C 15,9 C 73 % 1003,9 hPa 0,0 l/m 7,2 km/h (2 Bft) N-NW 340 0 min 4,66 klux 32 W/m
26.04.2015 19:43 15,0 C 15,1 C 15,9 C 73 % 1003,9 hPa 0,0 l/m 4,0 km/h (1 Bft) N 355 0 min 4,29 klux 29 W/m
26.04.2015 19:48 14,8 C 14,8 C 15,8 C 73 % 1003,9 hPa 0,0 l/m 0,9 km/h (0 Bft) N 360 0 min 3,73 klux 26 W/m
26.04.2015 19:54 14,7 C 14,8 C 15,8 C 74 % 1003,9 hPa 0,0 l/m 7,3 km/h (2 Bft) N-NO 25 0 min 2,98 klux 20 W/m
26.04.2015 19:59 14,6 C 14,6 C 15,8 C 74 % 1003,9 hPa 0,0 l/m 7,9 km/h (2 Bft) N-NO 25 0 min 2,61 klux 18 W/m
26.04.2015 20:04 14,5 C 14,3 C 15,8 C 75 % 1003,9 hPa 0,0 l/m 6,0 km/h (2 Bft) N-NO 25 0 min 2,55 klux 17 W/m
26.04.2015 20:08 14,5 C 13,9 C 15,8 C 75 % 1003,9 hPa 0,0 l/m 0,9 km/h (0 Bft) N 360 0 min 2,38 klux 16 W/m
26.04.2015 20:14 14,5 C 13,6 C 15,8 C 75 % 1003,9 hPa 0,0 l/m 0,2 km/h (0 Bft) N 355 0 min 1,97 klux 13 W/m
26.04.2015 20:19 14,4 C 13,2 C 15,8 C 75 % 1003,9 hPa 0,0 l/m 6,2 km/h (2 Bft) N45 360 0 min 1,56 klux 11 W/m
26.04.2015 20:24 14,3 C 13,0 C 15,7 C 75 % 1003,9 hPa 0,0 l/m 0,0 km/h (0 Bft) N 355 0 min 1,01 klux 7 W/m
26.04.2015 20:29 14,3 C 13,0 C 15,7 C 75 % 1003,9 hPa 0,0 l/m 0,7 km/h (0 Bft) N 355 0 min 629 lux 4 W/m
26.04.2015 20:34 14,1 C 13,0 C 15,7 C 76 % 1003,9 hPa 0,0 l/m 8,1 km/h (2 Bft) N-NO67.5 20 0 min 509 lux 3 W/m
26.04.2015 20:39 14,1 C 12,9 C 15,7 C 76 % 1003,9 hPa 0,0 l/m 0,8 km/h (0 Bft) N22.5 5 0 min 360 lux 2 W/m
26.04.2015 20:43 14,1 C 12,8 C 15,7 C 76 % 1003,9 hPa 0,0 l/m 9,4 km/h (2 Bft) N-NO22.5 25 0 min 213 lux 0 W/m
26.04.2015 20:49 14,0 C 12,7 C 15,7 C 76 % 1003,9 hPa 0,0 l/m 5,4 km/h (2 Bft) N-NO67.5 15 0 min 123 lux 0 W/m
26.04.2015 20:54 13,9 C 12,7 C 15,7 C 76 % 1003,9 hPa 0,0 l/m 4,5 km/h (1 Bft) N22.5 360 0 min 90 lux 0 W/m
26.04.2015 20:59 13,8 C 12,6 C 15,7 C 77 % 1003,9 hPa 0,0 l/m 7,2 km/h (2 Bft) N22.5 5 0 min 68 lux 0 W/m
26.04.2015 21:03 13,8 C 12,6 C 15,7 C 77 % 1003,9 hPa 0,0 l/m 6,0 km/h (2 Bft) N22.5 10 0 min 32 lux 0 W/m
26.04.2015 21:08 13,7 C 12,5 C 15,6 C 77 % 1003,9 hPa 0,0 l/m 5,9 km/h (2 Bft) N22.5 5 0 min 15 lux 0 W/m
26.04.2015 21:14 13,7 C 12,5 C 15,6 C 77 % 1003,9 hPa 0,0 l/m 9,4 km/h (2 Bft) N22.5 10 0 min 6 lux 0 W/m
26.04.2015 21:19 13,7 C 12,5 C 15,6 C 78 % 1003,9 hPa 0,0 l/m 5,6 km/h (2 Bft) N22.5 10 0 min 0 lux 0 W/m
26.04.2015 21:24 13,6 C 12,5 C 15,6 C 78 % 1003,9 hPa 0,0 l/m 10,6 km/h (2 Bft) N-NO22.5 25 0 min 0 lux 0 W/m
26.04.2015 21:29 13,6 C 12,5 C 15,6 C 79 % 1003,9 hPa 0,0 l/m 6,3 km/h (2 Bft) N-NO22.5 25 0 min 0 lux 0 W/m
26.04.2015 21:34 13,6 C 12,4 C 15,6 C 79 % 1003,9 hPa 0,0 l/m 1,1 km/h (1 Bft) N-NO 25 0 min 0 lux 0 W/m
26.04.2015 21:38 13,6 C 12,3 C 15,6 C 79 % 1003,9 hPa 0,0 l/m 6,7 km/h (2 Bft) N-NO 20 0 min 0 lux 0 W/m
26.04.2015 21:44 13,6 C 12,2 C 15,6 C 79 % 1003,9 hPa 0,0 l/m 6,3 km/h (2 Bft) N22.5 10 0 min 0 lux 0 W/m
26.04.2015 21:49 13,6 C 12,1 C 15,6 C 79 % 1003,9 hPa 0,0 l/m 0,0 km/h (0 Bft) N22.5 5 0 min 0 lux 0 W/m
26.04.2015 21:54 13,5 C 12,0 C 15,6 C 79 % 1003,9 hPa 0,0 l/m 0,0 km/h (0 Bft) N 355 0 min 0 lux 0 W/m
26.04.2015 21:59 13,5 C 12,0 C 15,6 C 79 % 1003,9 hPa 0,0 l/m 0,0 km/h (0 Bft) N 355 0 min 0 lux 0 W/m
26.04.2015 22:03 13,5 C 11,9 C 15,5 C 79 % 1003,9 hPa 0,0 l/m 0,0 km/h (0 Bft) N 355 0 min 0 lux 0 W/m
26.04.2015 22:09 13,4 C 11,8 C 15,5 C 79 % 1003,9 hPa 0,0 l/m 0,0 km/h (0 Bft) N 355 0 min 0 lux 0 W/m
26.04.2015 22:14 13,4 C 11,8 C 15,5 C 80 % 1003,9 hPa 0,0 l/m 0,0 km/h (0 Bft) N 355 0 min 0 lux 0 W/m
26.04.2015 22:19 13,3 C 11,7 C 15,5 C 81 % 1003,9 hPa 0,0 l/m 0,0 km/h (0 Bft) N 355 0 min 0 lux 0 W/m
26.04.2015 22:24 13,3 C 11,6 C 15,5 C 81 % 1003,9 hPa 0,0 l/m 0,0 km/h (0 Bft) N 355 0 min 0 lux 0 W/m
26.04.2015 22:29 13,2 C 11,6 C 15,5 C 81 % 1003,9 hPa 0,0 l/m 0,0 km/h (0 Bft) N 355 0 min 0 lux 0 W/m
26.04.2015 22:33 13,2 C 11,6 C 15,5 C 81 % 1003,9 hPa 0,0 l/m 0,0 km/h (0 Bft) N 355 0 min 0 lux 0 W/m
26.04.2015 22:39 13,2 C 11,7 C 15,5 C 81 % 1003,9 hPa 0,0 l/m 0,0 km/h (0 Bft) N 355 0 min 0 lux 0 W/m
26.04.2015 22:44 13,2 C 11,7 C 15,5 C 81 % 1003,9 hPa 0,0 l/m 0,0 km/h (0 Bft) N 355 0 min 0 lux 0 W/m
26.04.2015 22:49 13,2 C 11,7 C 15,5 C 82 % 1003,9 hPa 0,0 l/m 0,0 km/h (0 Bft) N 355 0 min 0 lux 0 W/m
26.04.2015 22:54 13,1 C 11,7 C 15,5 C 82 % 1003,9 hPa 0,0 l/m 0,0 km/h (0 Bft) N 355 0 min 0 lux 0 W/m
26.04.2015 22:59 13,2 C 11,7 C 15,5 C 82 % 1003,9 hPa 0,0 l/m 0,0 km/h (0 Bft) N 355 0 min 0 lux 0 W/m
26.04.2015 23:04 13,2 C 11,8 C 15,5 C 82 % 1003,9 hPa 0,0 l/m 0,0 km/h (0 Bft) N 355 0 min 0 lux 0 W/m
26.04.2015 23:09 13,2 C 11,8 C 15,5 C 82 % 1003,9 hPa 0,0 l/m 0,0 km/h (0 Bft) N 355 0 min 0 lux 0 W/m
26.04.2015 23:14 13,1 C 11,8 C 15,4 C 82 % 1003,9 hPa 0,0 l/m 0,0 km/h (0 Bft) N 355 0 min 0 lux 0 W/m
26.04.2015 23:19 13,1 C 11,8 C 15,4 C 83 % 1003,9 hPa 0,0 l/m 0,0 km/h (0 Bft) N 355 0 min 0 lux 0 W/m
26.04.2015 23:24 13,0 C 11,9 C 15,4 C 83 % 1003,9 hPa 0,0 l/m 0,0 km/h (0 Bft) N 355 0 min 0 lux 0 W/m
26.04.2015 23:28 13,0 C 11,9 C 15,4 C 83 % 1003,9 hPa 0,0 l/m 0,0 km/h (0 Bft) N 350 0 min 0 lux 0 W/m
26.04.2015 23:34 13,0 C 12,0 C 15,4 C 84 % 1003,9 hPa 0,0 l/m 0,0 km/h (0 Bft) N 360 0 min 0 lux 0 W/m
26.04.2015 23:39 13,0 C 12,0 C 15,4 C 84 % 1003,9 hPa 0,4 l/m 0,0 km/h (0 Bft) N 355 0 min 0 lux 0 W/m
26.04.2015 23:44 12,9 C 12,0 C 15,4 C 84 % 1003,9 hPa 0,0 l/m 6,2 km/h (2 Bft) N-NO22.5 20 0 min 0 lux 0 W/m
26.04.2015 23:49 12,9 C 12,0 C 15,4 C 85 % 1003,9 hPa 0,0 l/m 8,7 km/h (2 Bft) N22.5 360 0 min 0 lux 0 W/m
26.04.2015 23:54 12,8 C 11,9 C 15,4 C 85 % 1003,9 hPa 0,0 l/m 3,2 km/h (1 Bft) N 355 0 min 0 lux 0 W/m
26.04.2015 23:59 12,8 C 11,9 C 15,4 C 85 % 1003,9 hPa 0,0 l/m 10,5 km/h (2 Bft) N22.5 350 0 min 0 lux 0 W/m
_ Min-Zeit 06:24 00:04 06:53 15:54 18:04 - 20:24 - - - - -
Minimum _ 11,4 C 8,6 C 14,7 C 61 % 1003,9 hPa - 0,0 km/h (0 Bft) - - - - -
_ Max-Zeit 15:44 15:49 15:58 03:29 00:19 01:54 01:43 - - 10:19 14:44 14:44
Maximum _ 18,2 C 34,7 C 16,5 C 89 % 1007,9 hPa 0,4 l/m 32,2 km/h
SW (5 Bft)
- - 6 min 93,0 klux 636 W/m
Durchschnitt _ 13,9 C 16,2 C 15,4 C 79 % 1005,6 hPa #2,9 l/m 13,1 km/h (3 Bft) SW - #1:37 h 14,6 klux 167 W/m